EW3721 Weather Reports


Display with metric or nautical units.
time (UTC)temp
F
wind
direction
speed
MPH
gust
MPH
rain 1hr
in
rain 24hr
in
rain mn
in
humidity
%
barometer
mb
20260510123605 55 221 0.0 1.0 0.00 0.00 0.00 97 1013.2
20260510123105 55 221 0.0 1.0 0.00 0.00 0.00 97 1013.2
20260510122604 55 221 0.0 2.0 0.00 0.00 0.00 97 1013.1
20260510122104 55 221 0.0 2.0 0.00 0.00 0.00 97 1012.9
20260510121605 55 219 2.0 5.0 0.00 0.00 0.00 97 1012.9
20260510120604 54 188 0.0 1.0 0.00 0.00 0.00 97 1013.0
20260510115604 54 206 0.0 0.0 0.00 0.00 0.00 97 1012.7
20260510115104 54 206 0.0 0.0 0.00 0.00 0.00 97 1012.7
20260510114604 54 206 0.0 0.0 0.00 0.00 0.00 97 1012.5
20260510113104 54 174 1.0 3.0 0.00 0.00 0.00 97 1012.5
20260510111104 53 234 0.0 2.0 0.00 0.00 0.00 97 1012.6
20260510110604 53 234 0.0 1.0 0.00 0.00 0.00 97 1012.5
20260510110104 53 234 0.0 1.0 0.00 0.00 0.00 97 1012.4
20260510105604 52 234 1.0 2.0 0.00 0.00 0.00 97 1012.5
20260510105104 52 234 0.0 1.0 0.00 0.00 0.00 97 1012.5
20260510104604 52 234 0.0 2.0 0.00 0.00 0.00 97 1012.6
20260510104104 52 234 0.0 1.0 0.00 0.00 0.00 96 1012.5
20260510103104 52 234 0.0 1.0 0.00 0.00 0.00 96 1012.3
20260510102604 52 234 0.0 1.0 0.00 0.00 0.00 96 1012.3
20260510102105 52 234 0.0 0.0 0.00 0.00 0.00 96 1012.5
20260510101604 52 234 0.0 0.0 0.00 0.00 0.00 96 1012.5
20260510101104 52 234 0.0 1.0 0.00 0.00 0.00 96 1012.4
20260510100604 52 234 1.0 1.0 0.00 0.00 0.00 96 1012.3
20260510100104 52 234 0.0 0.0 0.00 0.00 0.00 96 1012.3
20260510094604 53 234 0.0 1.0 0.00 0.00 0.00 96 1012.7
20260510094104 53 234 0.0 1.0 0.00 0.00 0.00 96 1012.8
20260510093104 53 234 0.0 2.0 0.00 0.00 0.00 96 1012.7
20260510092604 53 234 1.0 2.0 0.00 0.00 0.00 96 1012.6
20260510092106 53 234 0.0 1.0 0.00 0.00 0.00 96 1012.5
20260510091604 53 234 0.0 0.0 0.00 0.00 0.00 96 1012.6
20260510091104 53 234 0.0 0.0 0.00 0.00 0.00 96 1012.6
20260510090604 53 234 0.0 0.0 0.00 0.00 0.00 96 1012.7
20260510090105 53 234 0.0 0.0 0.00 0.00 0.00 96 1012.8
20260510085104 53 234 0.0 1.0 0.00 0.00 0.00 96 1012.9
20260510084604 53 234 0.0 1.0 0.00 0.00 0.00 96 1012.8
20260510084104 53 234 0.0 2.0 0.00 0.00 0.00 96 1012.7
20260510083604 53 188 0.0 1.0 0.00 0.00 0.00 96 1012.7
20260510083104 53 188 0.0 1.0 0.00 0.00 0.00 96 1012.6
20260510082104 53 188 0.0 1.0 0.00 0.00 0.00 96 1012.1
20260510081105 53 188 0.0 1.0 0.00 0.00 0.00 96 1011.9
20260510080604 53 188 0.0 0.0 0.00 0.00 0.00 96 1011.9
20260510080104 53 188 0.0 0.0 0.00 0.00 0.00 96 1011.7
20260510075604 53 188 0.0 0.0 0.00 0.00 0.00 96 1011.8
20260510075104 53 188 0.0 0.0 0.00 0.00 0.00 96 1011.8
20260510074604 53 188 0.0 0.0 0.00 0.00 0.00 96 1011.9
20260510074105 53 188 0.0 0.0 0.00 0.00 0.00 96 1011.9
20260509154607 61 183 1.0 3.0 0.00 0.00 0.00 76 1012.8
20260509153607 61 163 1.0 3.0 0.00 0.00 0.00 76 1012.9
20260509153107 60 162 2.0 5.0 0.00 0.00 0.00 77 1012.9
20260509152607 60 185 1.0 3.0 0.00 0.00 0.00 80 1013.0
20260509151107 59 174 2.0 6.0 0.00 0.00 0.00 79 1013.1
20260509150607 59 145 1.0 3.0 0.00 0.00 0.00 81 1013.0
20260509150107 59 155 1.0 5.0 0.00 0.00 0.00 81 1013.1
20260509145607 58 154 1.0 5.0 0.00 0.00 0.00 83 1013.3
20260509145107 58 197 1.0 5.0 0.00 0.00 0.00 82 1013.2
20260509144607 57 163 2.0 6.0 0.00 0.00 0.00 82 1012.8
20260509144106 57 228 1.0 3.0 0.00 0.00 0.00 83 1012.9
20260509143607 57 167 2.0 5.0 0.00 0.00 0.00 84 1012.9
20260509143107 57 203 1.0 3.0 0.00 0.00 0.00 84 1012.8
20260509142607 56 220 1.0 3.0 0.00 0.00 0.00 85 1013.0
20260509142107 56 142 1.0 2.0 0.00 0.00 0.00 87 1013.4
20260509141607 56 142 0.0 3.0 0.00 0.00 0.00 87 1013.3
20260509141107 55 146 3.0 5.0 0.00 0.00 0.00 86 1013.3
20260509140107 55 158 1.0 5.0 0.00 0.00 0.00 86 1013.1
20260509135607 54 162 3.0 6.0 0.00 0.00 0.00 87 1012.8
20260509135107 54 141 0.0 5.0 0.00 0.00 0.00 88 1012.8
20260509134607 54 156 2.0 3.0 0.00 0.00 0.00 88 1012.8
20260509134107 53 175 2.0 5.0 0.00 0.00 0.00 89 1013.0
20260509133607 53 147 1.0 3.0 0.00 0.00 0.00 89 1013.0
20260509133106 53 238 1.0 3.0 0.00 0.00 0.00 90 1013.1
20260509132607 52 142 1.0 3.0 0.00 0.00 0.00 89 1013.3
20260509132106 52 170 1.0 2.0 0.00 0.00 0.00 89 1013.4
20260509131607 52 170 1.0 3.0 0.00 0.00 0.00 89 1013.6
20260509131107 52 151 1.0 3.0 0.00 0.00 0.00 90 1013.7
20260509130607 51 139 1.0 3.0 0.00 0.00 0.00 90 1013.9
20260509130107 51 162 2.0 3.0 0.00 0.00 0.00 90 1013.9
20260509125107 51 157 1.0 2.0 0.00 0.00 0.00 91 1014.1
20260509124107 50 0 0.0 3.0 0.00 0.00 0.00 91 1013.9